User: anonymous   Login
Location: Deep South Regional Star Gaze
(30.9929°N, 90.9586°W)
Time: 15:14:52
(UTC-06:00)
Language:

H-2A R/B - Orbit

View from above orbital plane
View from above orbital plane
View from above satellite
View from above satellite

Ground track
Ground track

The orbit data is extracted from the following two-line orbital elements,

1 26899U 01038B   16343.79292758  .00000560  00000-0  24554-3 0  9996
2 26899  27.9117 143.0144 7115707  61.6188 351.4066  2.47393370131792
Epoch (UTC): 08 December 2016 19:01:48
Eccentricity: 0.7115707
inclination: 27.9117°
perigee height: 282 km
apogee height: 33146 km
right ascension of ascending node: 143.0144°
argument of perigee: 61.6188°
revolutions per day: 2.47393370
mean anomaly at epoch: 351.4066°
orbit number at epoch: 13179

The dashed part of the orbit path shows where the satellite is in the earth's shadow,  

DLR